Tracking 25710 objects as of 5-Jul-2022
HD Live streaming from Space Station
objects crossing your sky now

FENGYUN 1C DEB

Track FENGYUN 1C DEB now!
10-day predictions


NORAD ID: 33728
Int'l Code: 1999-025DHR
Perigee: 518.9 km
Apogee: 801.4 km
Inclination: 99.0 °
Period: 97.8 minutes
Semi major axis: 7031 km
RCS: 0.0056 m2 (small)
Launch date: May 10, 1999
Source: People's Republic of China (PRC)
Launch site: Taiyaun Space Center, China (TSC)

Note: This is SATELLITE DEBRIS
aabbcc
Your satellite tracking list
Your tracking list is empty




NASA's NSSDC Master Catalog

Two Line Element Set (TLE):
1 33728U 99025DHR 22185.47151360  .00000715  00000-0  90967-4 0  9991
2 33728  98.9744  73.4902 0200896 222.5364 313.9227 14.72517420796877
Source of the keplerian elements: AFSPC